When you browse on this site, cookies collect data to enhance your experience and personalize the content and advertising you see.
Visit our Privacy Policy to learn more. By continuing to use the site, you agree to this use of cookies and data.
  • In Romania
  • List of Countries
  • For 7 days
  • Water Temperature
  • Satellite Maps
  • Weather Map
  • Weather Widgets
  • user-avatar
    Login

    Hourly Weather Yulara

    Today, 16 December, Sunday

    Time Temperature Precipitation Wind Pressure Humidity
    00:00 +28°C° 0 mm 4 mps 712 mmHg 15%
    01:00 +28°C° 0 mm 4 mps 713 mmHg 17%
    02:00 +27°C° 0 mm 4 mps 713 mmHg 19%
    03:00 +26°C° 0 mm 4 mps 712 mmHg 21%
    04:00 +26°C° 0 mm 4 mps 713 mmHg 23%
    05:00 +26°C° 0 mm 4 mps 713 mmHg 26%
    06:00 +25°C° 0 mm 4 mps 713 mmHg 28%
    07:00 +28°C° 0 mm 5 mps 713 mmHg 24%
    08:00 +30°C° 0 mm 6 mps 714 mmHg 21%
    09:00 +34°C° 0 mm 7 mps 714 mmHg 17%
    10:00 +35°C° 0 mm 6 mps 713 mmHg 14%
    11:00 +37°C° 0 mm 5 mps 713 mmHg 12%
    12:00 +40°C° 0 mm 4 mps 713 mmHg 9%
    13:00 +40°C° 0 mm 3 mps 712 mmHg 9%
    14:00 +41°C° 0 mm 2 mps 712 mmHg 9%
    15:00 +41°C° 0 mm 1 mps 711 mmHg 8%
    16:00 +41°C° 0 mm 1 mps 711 mmHg 8%
    17:00 +41°C° 0 mm 1 mps 711 mmHg 9%
    18:00 +41°C° 0 mm 1 mps 711 mmHg 9%
    19:00 +40°C° 0 mm 2 mps 711 mmHg 10%
    20:00 +39°C° 0 mm 3 mps 711 mmHg 10%
    21:00 +38°C° 0 mm 3 mps 711 mmHg 11%
    22:00 +37°C° 0 mm 4 mps 711 mmHg 12%
    23:00 +36°C° 0 mm 5 mps 711 mmHg 13%

    Tomorrow, 17 December, Monday

    Time Temperature Precipitation Wind Pressure Humidity
    00:00 +35°C° 0 mm 6 mps 711 mmHg 13%
    01:00 +34°C° 0 mm 7 mps 711 mmHg 14%
    02:00 +33°C° 0 mm 7 mps 711 mmHg 15%
    03:00 +32°C° 0 mm 7 mps 711 mmHg 16%
    04:00 +32°C° 0 mm 7 mps 711 mmHg 17%
    05:00 +30°C° 0 mm 6 mps 711 mmHg 18%
    06:00 +30°C° 0 mm 5 mps 712 mmHg 18%
    07:00 +34°C° 0 mm 6 mps 712 mmHg 16%
    08:00 +36°C° 0 mm 7 mps 712 mmHg 13%
    09:00 +40°C° 0 mm 8 mps 713 mmHg 10%
    10:00 +43°C° 0 mm 8 mps 713 mmHg 10%
    11:00 +45°C° 0 mm 8 mps 712 mmHg 9%
    12:00 +46°C° 0 mm 8 mps 712 mmHg 8%
    13:00 +48°C° 0 mm 8 mps 711 mmHg 8%
    14:00 +47°C° 0 mm 7 mps 711 mmHg 8%
    15:00 +49°C° 0 mm 7 mps 710 mmHg 7%
    16:00 +47°C° 0 mm 7 mps 710 mmHg 8%
    17:00 +47°C° 0 mm 7 mps 710 mmHg 8%
    18:00 +47°C° 0 mm 6 mps 710 mmHg 8%
    19:00 +46°C° 0 mm 6 mps 710 mmHg 9%
    20:00 +43°C° 0 mm 5 mps 710 mmHg 11%
    21:00 +42°C° 0 mm 4 mps 711 mmHg 12%
    22:00 +42°C° 0 mm 4 mps 711 mmHg 12%
    23:00 +41°C° 0 mm 4 mps 711 mmHg 13%

    Day after tomorrow, 18 December, Tuesday

    Time Temperature Precipitation Wind Pressure Humidity
    00:00 +40°C° 0 mm 4 mps 711 mmHg 14%
    01:00 +38°C° 0 mm 4 mps 711 mmHg 14%
    02:00 +37°C° 0 mm 5 mps 711 mmHg 14%
    03:00 +36°C° 0 mm 5 mps 711 mmHg 15%
    04:00 +36°C° 0 mm 6 mps 711 mmHg 14%
    05:00 +35°C° 0 mm 6 mps 711 mmHg 13%
    06:00 +34°C° 0 mm 6 mps 712 mmHg 13%
    07:00 +36°C° 0 mm 6 mps 712 mmHg 12%
    08:00 +37°C° 0 mm 5 mps 713 mmHg 11%
    09:00 +40°C° 0 mm 4 mps 713 mmHg 10%
    10:00 +41°C° 0 mm 4 mps 713 mmHg 10%
    11:00 +42°C° 0 mm 4 mps 713 mmHg 10%
    12:00 +45°C° 0 mm 5 mps 713 mmHg 10%
    13:00 +45°C° 0 mm 5 mps 713 mmHg 10%
    14:00 +46°C° 0 mm 6 mps 712 mmHg 10%
    15:00 +46°C° 0 mm 7 mps 712 mmHg 10%
    16:00 +46°C° 0 mm 6 mps 712 mmHg 10%
    17:00 +46°C° 0 mm 6 mps 712 mmHg 10%
    18:00 +45°C° 0 mm 6 mps 712 mmHg 10%
    19:00 +43°C° 0 mm 5 mps 712 mmHg 11%
    20:00 +41°C° 0 mm 5 mps 713 mmHg 12%
    21:00 +40°C° 0 mm 4 mps 713 mmHg 13%
    22:00 +39°C° 0 mm 5 mps 713 mmHg 13%
    23:00 +38°C° 0 mm 7 mps 713 mmHg 14%

    19 December, Wednesday

    Time Temperature Precipitation Wind Pressure Humidity
    00:00 +37°C° 0 mm 8 mps 713 mmHg 14%
    01:00 +35°C° 0 mm 8 mps 713 mmHg 17%
    02:00 +33°C° 0 mm 8 mps 713 mmHg 20%
    03:00 +32°C° 0 mm 9 mps 713 mmHg 23%
    04:00 +31°C° 0 mm 9 mps 714 mmHg 28%
    05:00 +29°C° 0 mm 9 mps 714 mmHg 32%
    06:00 +28°C° 0 mm 9 mps 715 mmHg 36%
    07:00 +31°C° 0 mm 8 mps 715 mmHg 33%
    08:00 +33°C° 0 mm 8 mps 716 mmHg 31%
    09:00 +34°C° 0 mm 8 mps 716 mmHg 28%
    10:00 +36°C° 0 mm 7 mps 716 mmHg 24%
    11:00 +39°C° 0 mm 6 mps 716 mmHg 21%
    12:00 +41°C° 0 mm 5 mps 715 mmHg 17%
    13:00 +41°C° 0 mm 4 mps 715 mmHg 16%
    14:00 +42°C° 0 mm 4 mps 714 mmHg 14%
    15:00 +43°C° 0 mm 4 mps 714 mmHg 13%
    16:00 +43°C° 0 mm 4 mps 714 mmHg 14%
    17:00 +42°C° 0 mm 5 mps 714 mmHg 14%
    18:00 +42°C° 0 mm 5 mps 714 mmHg 14%
    19:00 +41°C° 0 mm 6 mps 714 mmHg 16%
    20:00 +39°C° 0 mm 8 mps 715 mmHg 18%
    21:00 +37°C° 0 mm 9 mps 715 mmHg 20%
    22:00 +36°C° 0 mm 10 mps 715 mmHg 24%
    23:00 +33°C° 0 mm 10 mps 715 mmHg 29%

    20 December, Thursday

    Time Temperature Precipitation Wind Pressure Humidity
    00:00 +31°C° 0 mm 11 mps 715 mmHg 33%
    01:00 +29°C° 0 mm 11 mps 715 mmHg 36%
    02:00 +28°C° 0 mm 10 mps 715 mmHg 39%
    03:00 +26°C° 0 mm 9 mps 715 mmHg 43%
    04:00 +26°C° 0 mm 9 mps 716 mmHg 44%
    05:00 +24°C° 0 mm 8 mps 716 mmHg 45%
    06:00 +24°C° 0 mm 8 mps 716 mmHg 47%
    07:00 +26°C° 0 mm 7 mps 717 mmHg 42%
    08:00 +28°C° 0 mm 7 mps 717 mmHg 38%
    09:00 +29°C° 0 mm 7 mps 718 mmHg 33%
    10:00 +32°C° 0 mm 7 mps 718 mmHg 31%
    11:00 +33°C° 0 mm 6 mps 717 mmHg 28%
    12:00 +34°C° 0 mm 6 mps 717 mmHg 26%
    13:00 +35°C° 0 mm 6 mps 716 mmHg 24%
    14:00 +36°C° 0 mm 6 mps 716 mmHg 23%
    15:00 +36°C° 0 mm 5 mps 715 mmHg 22%
    16:00 +36°C° 0 mm 5 mps 715 mmHg 21%
    17:00 +36°C° 0 mm 6 mps 715 mmHg 21%
    18:00 +36°C° 0 mm 6 mps 715 mmHg 21%
    19:00 +35°C° 0 mm 6 mps 715 mmHg 23%
    20:00 +33°C° 0 mm 7 mps 715 mmHg 24%
    21:00 +32°C° 0 mm 7 mps 716 mmHg 26%
    22:00 +30°C° 0 mm 7 mps 716 mmHg 26%
    23:00 +30°C° 0 mm 6 mps 716 mmHg 26%

    21 December, Friday

    Time Temperature Precipitation Wind Pressure Humidity
    00:00 +29°C° 0 mm 6 mps 716 mmHg 27%
    01:00 +28°C° 0 mm 6 mps 716 mmHg 27%
    02:00 +28°C° 0 mm 6 mps 715 mmHg 28%
    03:00 +27°C° 0 mm 6 mps 715 mmHg 28%
    04:00 +27°C° 0 mm 6 mps 716 mmHg 29%
    05:00 +26°C° 0 mm 7 mps 716 mmHg 30%
    06:00 +24°C° 0 mm 7 mps 716 mmHg 31%
    07:00 +27°C° 0 mm 8 mps 717 mmHg 29%
    08:00 +28°C° 0 mm 8 mps 717 mmHg 27%
    09:00 +31°C° 0 mm 8 mps 718 mmHg 25%
    10:00 +32°C° 0 mm 8 mps 717 mmHg 23%
    11:00 +34°C° 0 mm 7 mps 717 mmHg 22%
    12:00 +36°C° 0 mm 7 mps 716 mmHg 20%
    13:00 +36°C° 0 mm 6 mps 716 mmHg 19%
    14:00 +37°C° 0 mm 5 mps 715 mmHg 18%
    15:00 +39°C° 0 mm 5 mps 715 mmHg 17%
    16:00 +37°C° 0 mm 5 mps 715 mmHg 17%
    17:00 +37°C° 0 mm 5 mps 715 mmHg 18%
    18:00 +38°C° 0 mm 6 mps 715 mmHg 18%
    19:00 +36°C° 0 mm 6 mps 716 mmHg 19%
    20:00 +34°C° 0 mm 7 mps 716 mmHg 21%
    21:00 +33°C° 0 mm 7 mps 716 mmHg 22%
    22:00 +32°C° 0 mm 8 mps 716 mmHg 22%
    23:00 +31°C° 0 mm 8 mps 716 mmHg 22%
    Show more